Philadelphia, PA

6:26 PM EDT on July 29, 2016 (GMT -0400)
Northeast Philadelphia

Weather History for KPNE - June, 2013

Change the Weather History Date:

Tuesday, June 4, 2013

  Actual Average Record
Temperature  
Mean Temperature 65 °F -  
Max Temperature 75 °F 74 °F 86 °F (2014)
Min Temperature 55 °F 55 °F 50 °F (1997)
Growing Degree Days 15 (Base 50)    
Moisture  
Dew Point 44 °F    
Average Humidity 47    
Maximum Humidity 73    
Minimum Humidity 29    
Precipitation  
Precipitation 0.00 in - - ()
Sea Level Pressure  
Sea Level Pressure 30.05 in    
Wind  
Wind Speed 8 mph (NNW)    
Max Wind Speed 15 mph    
Max Gust Speed 21 mph    
Visibility 10 miles    
Events      
Averages and records for this station are not official NWS values.
T = Trace of Precipitation, MM = Missing Value Source: NWS Daily Summary

Daily Weather History Graph

Daily Weather History Graph

Search for Another Location

Airport or City:

Trip Planner

Search our weather history database for the weather conditions in past years. The results will help you decide how hot, cold, wet, or windy it might be!

Date:

Astronomy

Jun. 04, 2013 Rise Set
Actual Time 5:31 AM EDT 8:25 PM EDT
Civil Twilight 4:59 AM EDT 8:57 PM EDT
Nautical Twilight 4:18 AM EDT 9:38 PM EDT
Astronomical Twilight 3:31 AM EDT 10:26 PM EDT
Moon 3:00 AM EDT (6/4) 4:52 PM EDT (6/4)
Length of Visible Light 15h 58m
Length of Day
14h 53m
Waning Crescent, 14% of the Moon is Illuminated
Jun 4
Waning Crescent
Jun 8
New
Jun 16
First Quarter
Jun 23
Full
Jun 30
Last Quarter

Hourly Weather History & Observations

Time (EDT) Temp. Dew Point Humidity Pressure Visibility Wind Dir Wind Speed Gust Speed Precip Events Conditions
12:54 AM 66.0 °F 57.0 °F 73% 29.93 in 10.0 mi North 9.2 mph - N/A   Partly Cloudy
1:54 AM 63.0 °F 52.0 °F 67% 29.94 in 10.0 mi North 8.1 mph - N/A   Clear
2:54 AM 63.0 °F 46.0 °F 54% 29.96 in 10.0 mi North 10.4 mph - N/A   Overcast
3:54 AM 61.0 °F 44.1 °F 54% 29.96 in 10.0 mi North 8.1 mph - N/A   Clear
4:54 AM 57.9 °F 43.0 °F 58% 29.98 in 10.0 mi North 10.4 mph - N/A   Clear
5:54 AM 55.0 °F 44.1 °F 67% 30.02 in 10.0 mi North 4.6 mph - N/A   Clear
6:54 AM 57.9 °F 43.0 °F 58% 30.04 in 10.0 mi North - - N/A   Clear
7:54 AM 60.1 °F 42.1 °F 51% 30.06 in 10.0 mi NNW 15.0 mph 20.7 mph N/A   Clear
8:54 AM 62.1 °F 42.1 °F 48% 30.07 in 10.0 mi North 10.4 mph - N/A   Clear
9:54 AM 64.0 °F 42.1 °F 45% 30.08 in 10.0 mi NNW 12.7 mph 19.6 mph N/A   Clear
10:54 AM 66.0 °F 42.1 °F 42% 30.09 in 10.0 mi Variable 4.6 mph - N/A   Clear
11:54 AM 68.0 °F 44.1 °F 42% 30.09 in 10.0 mi NW 8.1 mph - N/A   Clear
12:54 PM 70.0 °F 43.0 °F 38% 30.08 in 10.0 mi WNW 11.5 mph - N/A   Clear
1:54 PM 72.0 °F 46.0 °F 40% 30.06 in 10.0 mi Variable 6.9 mph - N/A   Clear
2:54 PM 73.9 °F 43.0 °F 33% 30.05 in 10.0 mi NNW 11.5 mph - N/A   Clear
3:54 PM 75.0 °F 42.1 °F 31% 30.05 in 10.0 mi NNW 8.1 mph 19.6 mph N/A   Clear
4:54 PM 75.0 °F 42.1 °F 31% 30.04 in 10.0 mi NW 3.5 mph - N/A   Clear
5:54 PM 75.0 °F 41.0 °F 29% 30.04 in 10.0 mi NW 8.1 mph - N/A   Clear
6:54 PM 73.9 °F 41.0 °F 30% 30.06 in 10.0 mi WNW 9.2 mph - N/A   Clear
7:54 PM 71.1 °F 43.0 °F 36% 30.07 in 10.0 mi West 6.9 mph - N/A   Clear
8:54 PM 66.9 °F 44.1 °F 44% 30.09 in 10.0 mi West 4.6 mph - N/A   Clear
9:54 PM 68.0 °F 44.1 °F 42% 30.11 in 10.0 mi NW 3.5 mph - N/A   Clear
10:54 PM 62.1 °F 46.9 °F 58% 30.13 in 10.0 mi Calm Calm - N/A   Clear
11:54 PM 62.1 °F 43.0 °F 50% 30.13 in 10.0 mi North 6.9 mph - N/A   Clear